Home   Weather   Fall River   Past weeks
Flag for USA

Past Weather in Fall River, Massachusetts, USA — Yesterday and Last 2 Weeks

Now
62 °F

Clear.


Feels Like: 62 °F
Forecast: 68 / 61 °F
Wind: No wind

Location: New Bedford Regional Airport

Current Time: Jun 18, 2019 at 1:01:56 am

Latest Report: Jun 17, 2019 at 11:53 pm


Visibility: 10 mi

Pressure: 30.00 "Hg

Humidity: 90%

Dew Point: 59 °F

Location of Fall RiverLocation

Past Weather in Fall River — Graph

°F

Fall River Temperature Yesterday

Maximum temperature yesterday: 75 °F (at 12:53 pm)
Minimum temperature yesterday: 62 °F (at 9:53 pm)
Average temperature yesterday: 68 °F

High & Low Weather Summary for the Past Weeks

 TemperatureHumidityPressure
High78 °F (Jun 6, 12:53 pm)97% (Jun 6, 3:32 am)30.37 "Hg (Jun 6, 3:32 am)
Low45 °F (Jun 4, 4:53 am)28% (Jun 3, 4:53 pm)29.67 "Hg (Jun 6, 6:53 am)
Average64 °F73%29.94 "Hg
* Reported Jun 2 11:53 pm — Jun 17 11:53 pm, Fall River. Weather by CustomWeather, © 2019

Note: Actual official high and low records may vary slightly from our data, if they occured in-between our weather recording intervals... More about our weather records

Advertising

Fall River Weather History for the Previous 24 Hours

Scroll right to see more
 ConditionsComfort  
Time TempWeatherWind HumidityBarometerVisibility
11:53 pm
Mon, Jun 17
62 °FClear.No wind90%30.00 "Hg10 mi
10:53 pm62 °FClear.3 mph90%29.99 "Hg10 mi
9:53 pm62 °FClear.3 mph90%29.99 "Hg10 mi
8:53 pm63 °FClear.3 mph84%29.99 "Hg10 mi
7:53 pm66 °FPassing clouds.7 mph81%29.98 "Hg10 mi
6:53 pm68 °FSunny.9 mph78%29.97 "Hg10 mi
5:53 pm72 °FSunny.10 mph71%29.97 "Hg10 mi
4:53 pm72 °FSunny.8 mph59%29.98 "Hg10 mi
3:53 pm72 °FOvercast.7 mph57%29.98 "Hg10 mi
2:53 pm75 °FSunny.No wind54%29.97 "Hg10 mi
1:53 pm74 °FSunny.7 mph53%29.96 "Hg10 mi
12:53 pm75 °FSunny.5 mph54%29.97 "Hg10 mi
11:53 am74 °FSunny.5 mph56%29.97 "Hg10 mi
10:53 am74 °FScattered clouds.7 mph57%29.95 "Hg10 mi
10:11 am73 °FScattered clouds.7 mph69%29.93 "Hg10 mi
10:00 am74 °FPartly sunny.10 mph67%29.93 "Hg10 mi
8:53 am72 °FScattered clouds.9 mph71%29.93 "Hg10 mi
7:53 am69 °FPassing clouds.5 mph81%29.92 "Hg10 mi
6:53 am67 °FSunny.3 mph87%29.91 "Hg10 mi
5:53 am65 °FSunny.3 mph94%29.88 "Hg10 mi
4:53 am64 °FPassing clouds.No wind94%29.85 "Hg8 mi
3:53 am64 °FClear.No wind94%29.84 "Hg8 mi
3:16 am65 °FPassing clouds.No wind94%29.83 "Hg9 mi
2:53 am65 °FPassing clouds.No wind94%29.82 "Hg8 mi
1:53 am64 °FMostly cloudy.No wind94%29.81 "Hg7 mi
Weather by CustomWeather, © 2019

See weather overview